User: anonymous   Login
Location: Unspecified
(0.0000°N, 0.0000°E)
Time: 19:59:42
(UTC+01:00)
Language:

NOAA 12 - Orbit

View from above orbital plane
View from above orbital plane
View from above satellite
View from above satellite

Ground track
Ground track

The orbit data is extracted from the following two-line orbital elements,

1 21263U 91032A   15061.05760277  .00000098  00000-0  59533-4 0  9992
2 21263 098.6407 089.5956 0013357 202.6709 210.4159 14.25735202237305
Epoch (UTC): 02 March 2015 01:22:56
Eccentricity: 0.0013357
inclination: 98.6407°
perigee height: 796 km
apogee height: 815 km
right ascension of ascending node: 89.5956°
argument of perigee: 202.6709°
revolutions per day: 14.25735202
mean anomaly at epoch: 210.4159°
orbit number at epoch: 23730

The dashed part of the orbit path shows where the satellite is in the earth's shadow,  

DLR